DW3735 Weather Reports


Display with metric or nautical units.
time (UTC)temp
F
wind
direction
speed
MPH
gust
MPH
rain 1hr
in
rain 24hr
in
rain mn
in
humidity
%
barometer
mb
20260502184536 46 0.0 1.0 0.00 0.00 0.00 48 1011.1
20260502183516 45 315 1.0 2.0 0.00 0.00 0.00 48 1011.2
20260502182516 45 315 1.0 3.0 0.00 0.00 0.00 51 1011.2
20260502181516 45 338 1.0 3.0 0.00 0.00 0.00 52 1011.1
20260502180516 45 270 2.0 4.0 0.00 0.00 0.00 52 1011.0
20260502170516 44 0.0 2.0 0.00 0.00 0.00 57 1011.1
20260502163516 42 45 2.0 3.0 0.00 0.00 0.00 62 1011.4
20260502161556 42 315 1.0 9.0 0.00 0.00 0.00 62 1011.6
20260502160516 42 0.0 3.0 0.00 0.00 0.00 60 1011.6
20260502151516 41 248 1.0 4.0 0.00 0.00 0.00 64 1011.9
20260502150536 41 68 1.0 5.0 0.00 0.00 0.00 60 1011.9
20260502130516 40 338 2.0 5.0 0.00 0.00 0.00 65 1012.0
20260502123516 40 68 1.0 3.0 0.00 0.00 0.00 64 1012.1
20260502122516 39 315 2.0 9.0 0.00 0.00 0.00 65 1012.2
20260502121516 39 68 1.0 4.0 0.00 0.00 0.00 69 1012.1
20260502120516 38 68 1.0 4.0 0.00 0.00 0.00 70 1012.1
20260502115516 38 0.0 3.0 0.00 0.00 0.00 71 1012.1
20260502114516 37 45 1.0 2.0 0.00 0.00 0.00 73 1012.0
20260502113516 37 45 1.0 2.0 0.00 0.00 0.00 74 1012.0
20260502112516 36 45 2.0 3.0 0.00 0.00 0.00 75 1011.7
20260502111516 35 90 1.0 2.0 0.00 0.00 0.00 76 1011.7
20260502110536 35 293 1.0 4.0 0.00 0.00 0.00 77 1011.7
20260502105516 35 0.0 1.0 0.00 0.00 0.00 77 1011.7
20260502104516 35 315 1.0 4.0 0.00 0.00 0.00 77 1011.6
20260502103556 35 0.0 2.0 0.00 0.00 0.00 77 1011.6
20260502102516 35 0.0 5.0 0.00 0.00 0.00 77 1011.4
20260502100516 35 338 2.0 5.0 0.00 0.00 0.00 77 1011.4
20260502091516 36 0.0 2.0 0.00 0.00 0.00 75 1011.0
20260502090516 36 0.0 3.0 0.00 0.00 0.00 75 1011.0
20260502071516 40 315 1.0 3.0 0.00 0.00 0.00 57 1010.7
20260502070516 40 0.0 3.0 0.00 0.00 0.00 57 1010.7
20260502065516 40 0.0 3.0 0.00 0.00 0.00 56 1010.6
20260502064516 40 0.0 1.0 0.00 0.00 0.00 55 1010.7
20260502063516 41 23 1.0 2.0 0.00 0.00 0.00 55 1010.7
20260502062516 41 0.0 2.0 0.00 0.00 0.00 55 1010.8
20260502061516 41 0.0 2.0 0.00 0.00 0.00 54 1010.7
20260502060516 41 0.0 2.0 0.00 0.00 0.00 53 1010.7
20260502055516 41 0.0 2.0 0.00 0.00 0.00 53 1010.7
20260502054516 42 0.0 1.0 0.00 0.00 0.00 53 1010.8
20260502053536 42 338 1.0 3.0 0.00 0.00 0.00 52 1011.0
20260502052516 42 338 1.0 7.0 0.00 0.00 0.00 52 1011.0
20260502051516 42 23 1.0 5.0 0.00 0.00 0.00 53 1011.0
20260502050516 42 338 1.0 4.0 0.00 0.00 0.00 55 1011.0
20260502045516 42 338 1.0 5.0 0.00 0.00 0.00 57 1011.0
20260502044536 42 0.0 2.0 0.00 0.00 0.00 60 1011.0
20260502043516 42 0.0 0.0 0.00 0.00 0.00 61 1011.0
20260502042516 43 0.0 0.0 0.00 0.00 0.00 61 1011.0
20260502041516 43 0.0 0.0 0.00 0.00 0.00 62 1011.0
20260502040516 43 0.0 0.0 0.00 0.00 0.00 62 1011.0
20260502035516 43 0.0 0.0 0.00 0.00 0.00 61 1011.0
20260502034517 43 0.0 0.0 0.00 0.00 0.00 61 1011.0
20260502033516 43 0.0 2.0 0.00 0.00 0.00 61 1011.0
20260502032516 43 315 1.0 3.0 0.00 0.00 0.00 60 1010.9
20260502031516 43 0.0 0.0 0.00 0.00 0.00 60 1010.9
20260502030516 43 0.0 0.0 0.00 0.00 0.00 61 1010.8
20260502025537 44 0.0 0.0 0.00 0.00 0.00 62 1010.9
20260502024516 44 0.0 0.0 0.00 0.00 0.00 61 1010.8
20260502023516 44 0.0 0.0 0.00 0.00 0.00 59 1010.7
20260502022516 43 0.0 0.0 0.00 0.00 0.00 59 1010.9
20260502021536 43 0.0 0.0 0.00 0.00 0.00 61 1010.9
20260502020517 43 0.0 0.0 0.00 0.00 0.00 61 1010.8
20260502015516 44 0.0 0.0 0.00 0.00 0.00 62 1010.8
20260502014516 44 0.0 2.0 0.00 0.00 0.00 61 1010.9
20260502013517 44 0.0 0.0 0.00 0.00 0.00 60 1010.9
20260502012517 44 0.0 0.0 0.00 0.00 0.00 59 1010.8
20260502011516 45 0.0 0.0 0.00 0.00 0.00 61 1010.9
20260502010516 45 0.0 0.0 0.00 0.00 0.00 58 1010.8
20260502005516 45 0.0 1.0 0.00 0.00 0.00 57 1010.8
20260502004537 46 0.0 1.0 0.00 0.00 0.00 57 1010.7
20260502003516 46 0.0 0.0 0.00 0.00 0.00 52 1010.5
20260502002516 46 0.0 0.0 0.00 0.00 0.00 54 1010.4
20260502001516 47 0.0 0.0 0.00 0.00 0.00 52 1010.4
20260502000516 47 0.0 0.0 0.00 0.00 0.00 52 1010.2
20260501235516 48 0.0 0.0 0.00 0.00 0.00 48 1010.1
20260501234516 48 0.0 0.0 0.00 0.00 0.00 48 1010.0
20260501233517 48 0.0 0.0 0.00 0.00 0.00 44 1009.9
20260501232516 49 0.0 1.0 0.00 0.00 0.00 44 1009.8
20260501231516 49 338 1.0 3.0 0.00 0.00 0.00 39 1009.8
20260501230516 49 0.0 2.0 0.00 0.00 0.00 41 1009.8
20260501225516 49 0.0 2.0 0.00 0.00 0.00 41 1009.7
20260501224516 49 0.0 1.0 0.00 0.00 0.00 41 1009.7
20260501223517 49 0.0 0.0 0.00 0.00 0.00 40 1009.6
20260501222516 50 0.0 1.0 0.00 0.00 0.00 40 1009.6
20260501221516 50 0.0 2.0 0.00 0.00 0.00 39 1009.6
20260501220516 50 293 1.0 3.0 0.00 0.00 0.00 39 1009.6
20260501215516 50 0.0 2.0 0.00 0.00 0.00 38 1009.6
20260501214516 50 0.0 1.0 0.00 0.00 0.00 38 1009.5
20260501213516 51 293 1.0 3.0 0.00 0.00 0.00 38 1009.5
20260501212516 51 293 1.0 3.0 0.00 0.00 0.00 37 1009.5
20260501211516 51 338 3.0 8.0 0.00 0.00 0.00 34 1009.5
20260501210516 51 338 1.0 6.0 0.00 0.00 0.00 35 1009.5
20260501205516 51 315 1.0 4.0 0.00 0.00 0.00 36 1009.4
20260501204516 51 0.0 2.0 0.00 0.00 0.00 37 1009.4
20260501203516 51 0.0 2.0 0.00 0.00 0.00 34 1009.5
20260501202516 51 338 2.0 4.0 0.00 0.00 0.00 35 1009.5
20260501201516 50 0.0 3.0 0.00 0.00 0.00 39 1009.5
20260501200536 50 0.0 3.0 0.00 0.00 0.00 40 1009.5
20260501195516 50 248 1.0 3.0 0.00 0.00 0.00 40 1009.6
20260501194516 50 248 1.0 3.0 0.00 0.00 0.00 43 1009.6
20260501193516 50 270 1.0 4.0 0.00 0.00 0.00 42 1009.7
20260501192536 50 315 1.0 4.0 0.00 0.00 0.00 38 1009.8
20260501191517 50 0.0 0.0 0.00 0.00 0.00 41 1009.7
20260501190516 50 248 1.0 2.0 0.00 0.00 0.00 38 1009.8
20260501185557 50 0.0 2.0 0.00 0.00 0.00 39 1009.8